Regional Weather Roundup
Issued by NWS

Home | Current Version | Previous Version | Graphics & Text | Print | Product List | Glossary On
Versions: 1 2 3 4 5 6 7 8 9 10 11 12 13 14 15 16 17 18 19 20 21 22 23 24 25 26 27 28 29 30 31 32 33 34 35 36 37 38 39 40 41 42 43 44 45 46 47 48 49 50
478
ASUS43 KMPX 092301
RWRMN
WEATHER ROUNDUP FOR MINNESOTA
NATIONAL WEATHER SERVICE TWIN CITIES/CHANHASSEN MN
500 PM CST TUE FEB 09 2016


NOTE: "FAIR" INDICATES FEW OR NO CLOUDS BELOW 12,000 FEET WITH NO
SIGNIFICANT WEATHER AND/OR OBSTRUCTIONS TO VISIBILITY. N/A MEANS
CURRENT SKY AND/OR WEATHER CONDITIONS ARE NOT AVAILABLE.

MNZ060>063-068>070-100000-
   Twin Cities Metro

CITY           SKY/WX    TMP DP  RH WIND       PRES   REMARKS
TWIN CITIES    PTCLDY    15  -1  49 NW14G25   30.12R WCI   0
ST PAUL        CLEAR     16  -1  47 NW18      30.12S WCI   0
CRYSTAL        CLEAR     15  -1  49 N15       30.11S WCI   0
BLAINE         PTCLDY    16   1  53 N16G23    30.11R WCI   0
LAKEVILLE      CLEAR     12   0  57 N14       30.10S WCI  -3
EDEN PRAIRIE   CLEAR     16  -2  45 N15       30.10S WCI   1
SOUTH ST PAUL  CLEAR     16  -1  47 NW13G21   30.10S WCI   2
LAKE ELMO      FAIR      16   0  48 NW9       30.10S WCI   4
$$
MNZ001>005-007-008-013>017-022>024-027-028-100000-
   Northwest Minnesota

CITY           SKY/WX    TMP DP  RH WIND       PRES   REMARKS
BEMIDJI        CLEAR      6  -2  68 NW14      30.17R WCI -10
HALLOCK        CLOUDY     3  -2  78 N10       30.29S WCI -12
ROSEAU         CLEAR      7  -2  66 W6        30.22F WCI  -3
WARROAD        CLEAR      9  -4  56 NW6       30.22S WCI  -1
THIEF RVR FALL CLEAR      7  -2  66 NW9       30.24S WCI  -7
CROOKSTON      PTCLDY     7   1  78 N13       30.28S WCI  -9
FOSSTON        CLEAR      3  -4  72 NW8       30.22S WCI -10
DETROIT LAKES  CLOUDY    10   5  79 NW9       30.21R WCI  -2
MOORHEAD       CLOUDY    12   7  79 N12       30.26S WCI  -2
PARK RAPIDS    CLEAR     11  -4  51 N14       30.14R WCI  -5
MAHNOMEN       FAIR       6  -1  75 NW8       30.21S WCI  -7
$$
MNZ006-009>011-018-025>026-100000-
   North Central Minnesota

CITY           SKY/WX    TMP DP  RH WIND       PRES   REMARKS
BAUDETTE       CLEAR      4  -7  60 NW9       30.18S WCI -10
FLAG ISLAND    CLEAR      5  -4  66 NW10      30.21S WCI -10
INTL FALLS     CLEAR      5  -6  60 N16       30.15R WCI -14
WASKISH        CLEAR      7  -4  61 NW7       30.19R WCI  -5
LONGVILLE      CLEAR      9  -4  56 NW6       30.14S WCI  -1
GRAND RAPIDS   CLEAR      9  -6  52 NW16G22   30.11R WCI  -9
CRANE LAKE     CLOUDY     3  -4  72 NW7       30.15R WCI  -9
ORR            CLEAR      5  -8  56 NW3       30.09R
COOK           CLEAR      7  -6  56 N8        30.11R WCI  -6
WALKER         FAIR       8  -2  62 NW7       30.15R WCI  -3
$$
MNZ012-019>021-037-100000-
   Northeast Minnesota

CITY           SKY/WX    TMP DP  RH WIND       PRES   REMARKS
DULUTH         PTCLDY     8  -5  55 NW12G24   30.03R WCI  -7
ELY            MOCLDY     3  -2  78 NW12G20   30.07R WCI -13
HIBBING        CLEAR      5  -5  63 NW16      30.09R WCI -14
EVELETH        CLEAR      9  -4  56 NW7G18    30.09R WCI  -3
DULUTH HARBOR  CLEAR     14  -2  48 NW13      30.12R WCI   0
TWO HARBORS    CLEAR     10  -2  56 NW9G17    30.04R WCI  -2
SILVER BAY     CLEAR      7  -2  66 NW5       30.03R WCI  -2
G MARAIS ARPRT CLOUDY     0  -9  65 NW15G25   29.94R WCI -20
$$
MNZ029>031-032-039>041-046>048-054>057-064-100000-
   West Central Minnesota

CITY           SKY/WX    TMP DP  RH WIND       PRES   REMARKS
FERGUS FALLS   CLOUDY    12   5  73 N15       30.25S WCI  -4
WHEATON        CLOUDY    18  10  73 NW8       30.25F WCI   7
MORRIS         CLOUDY    16   7  67 NW20      30.20S WCI  -1
ALEXANDRIA     CLEAR     11  -2  56 NW12      30.17R WCI  -3
ELBOW LAKE     CLOUDY    12   5  73 NW13G18   30.20F HAZE    WCI  -3
WADENA         CLEAR      9   1  72 NW9       30.16R WCI  -5
GLENWOOD       CLEAR     12   1  62 NW13G18   30.17R WCI  -3
APPLETON       CLOUDY    18   9  68 NW18      30.22S WCI   2
BENSON         CLOUDY    16   7  67 N14G20    30.20S WCI   1
ORTONVILLE     CLOUDY    18   9  68 N13       30.22S WCI   4
MADISON        CLOUDY    19  10  68 NW15      30.23R WCI   5
WILLMAR        FAIR      18   7  62 NW17      30.18S WCI   2
$$
MNZ033>034-036-042>043-049>051-058-059-100000-
   Central Minnesota

CITY           SKY/WX    TMP DP  RH WIND       PRES   REMARKS
ST CLOUD       CLEAR     14  -1  51 NW12G23   30.14R WCI   0
SAUK CENTRE    FAIR      13   2  62 NW13      30.16S WCI  -2
PAYNESVILLE    CLEAR     14   3  60 NW13G18   30.17R WCI   0
AITKIN         CLEAR     12  -6  44 NW7       30.12R WCI   2
PINE RIVER     CLEAR     10  -2  56 NW8       30.17R WCI  -1
BRAINERD       CLEAR     12  -4  48 NW12      30.14R WCI  -2
STAPLES        CLEAR     12  -2  52 NW10G17   30.15R WCI  -1
LONG PRAIRIE   FAIR      14   1  57 NW13G18   30.15R WCI   0
LITTLE FALLS   CLEAR     16  -4  41 NW6       30.15R WCI   7
LITCHFIELD     CLEAR     16   3  57 NW12G18   30.16R WCI   3
BUFFALO        CLEAR     15   0  50 NW16      30.14R WCI  -1
MAPLE LAKE     CLEAR     16   2  55 NW12G17   30.15R WCI   3
$$
MNZ037-044-045-052-053-100000-
   East Central Minnesota

CITY           SKY/WX    TMP DP  RH WIND       PRES   REMARKS
PRINCETON      CLEAR     14   0  52 NW9G20    30.12R WCI   2
MORA           CLEAR     12  -2  52 NW14G20   30.13R WCI  -3
CAMBRIDGE      CLEAR     16   1  53 NW9       30.10R WCI   4
RUSH CITY      CLEAR     13  -2  51 NW9       30.11R WCI   1
MOOSE LAKE     CLEAR     12  -4  48 NW10G17   30.08R WCI  -1
HINCKLEY       FAIR      14  -2  48 NW13G20   30.09S WCI   0
CLOQUET        CLEAR      9  -6  52 NW17G24   30.07R WCI -10
MCGREGOR       CLEAR     10  -2  56 NW9       30.11R WCI  -2
$$
MNZ071>073-080-081-089-090-097-098-100000-
   Southwest Minnesota

CITY           SKY/WX    TMP DP  RH WIND       PRES   REMARKS
MONTEVIDEO     CLOUDY    18  10  73 N16       30.22S WCI   3
GRANITE FALLS  CLOUDY    19  11  72 NW16G23   30.22R WCI   4
CANBY          CLOUDY    23  15  71 NW10      30.23R WCI  12
MARSHALL       CLOUDY    18  10  71 N17       30.20S WCI   3
REDWOOD FALLS  MOCLDY    17   7  64 NW13G24   30.19R WCI   4
OLIVIA         CLEAR     18   9  68 NW16G26   30.17R WCI   3
PIPESTONE      CLOUDY    21   7  53 N10       30.18R WCI  10
WINDOM         CLEAR     14   9  79 NW16      30.15S WCI  -2
WORTHINGTON    CLOUDY    18   7  62 NW20      30.17S WCI   1
JACKSON        PTCLDY    18   7  62 NW22G29   30.14S WCI   0
TRACY          CLOUDY    19  12  76 NW14G20   30.19R WCI   5
SLAYTON        CLOUDY    17  12  79 NW16      30.17R WCI   2
$$
MNZ065>067-074>077-082>085-091>093-100000-
   South Central Minnesota

CITY           SKY/WX    TMP DP  RH WIND       PRES   REMARKS
MANKATO        CLEAR     16   1  53 NW17      30.13R WCI   0
NEW ULM        CLEAR     16   5  62 NW21G26   30.14R WCI  -2
ST JAMES       PTCLDY    18  10  73 NW18G24   30.17R WCI   2
FAIRMONT       PTCLDY    16   7  67 NW18      30.13S WCI  -1
GLENCOE        CLEAR     17   4  58 NW15G22   30.14R WCI   2
FARIBAULT      CLEAR     14   0  52 NW14      30.10S WCI  -1
OWATONNA       CLEAR     12   1  62 NW15      30.08S WCI  -4
WASECA         CLEAR     14   3  62 NW18      30.12R WCI  -3
ALBERT LEA     CLEAR     12   1  62 NW14G22   30.08S WCI  -3
$$
MNZ078>079-086>088-094>096-100000-
   Southeast Minnesota

CITY           SKY/WX    TMP DP  RH WIND       PRES   REMARKS
ROCHESTER      CLEAR     12   0  58 NW18      30.03R WCI  -6
RED WING       CLEAR     16  -4  41 NW9G17    30.08S WCI   4
STANTON        CLEAR     15   0  51 NW13      30.08S WCI   2
DODGE CENTER   PTCLDY    12   0  57 NW13      30.05R WCI  -3
WINONA         CLEAR     18   3  53 N13       30.07R WCI   4
AUSTIN         CLEAR     12   1  62 NW16G23   30.06S WCI  -4
PRESTON        CLEAR     12   0  58 NW18G26   30.02R WCI  -6
$$
ABBREVIATIONS USED IN REMARKS
   TC - TEMPERATURES IN CELSIUS
  WCI - WIND CHILL INDEX
   HX - HEAT INDEX
  VSB - VISIBILITY
$$




USA.gov is the U.S. government's official web portal to all federal, state and local government web resources and services.